Change the Weather History Date:

Saturday, January 25, 2014

  Actual Average Record
Temperature  
Mean Temperature 16 °F 22 °F  
Max Temperature 22 °F 29 °F 63 °F (1967)
Min Temperature 9 °F 15 °F -9 °F (1963)
Degree Days  
Heating Degree Days 49 43  
Month to date heating degree days 1157 1069  
Since 1 July heating degree days 3896 3814  
Cooling Degree Days 0 0  
Month to date cooling degree days 0 0  
Year to date cooling degree days 0 0  
Moisture  
Dew Point 7 °F    
Average Humidity 65    
Maximum Humidity 84    
Minimum Humidity 46    
Precipitation  
Precipitation 0.06 in 0.08 in 1.75 in (2010)
Month to date precipitation 2.92 1.99  
Year to date precipitation 2.92 1.99  
Snow  
Snow 1.70 in 0.70 in 8.40 in (1958)
Month to date snowfall 22.5 18.1  
Since 1 July snowfall 55.7 42.7  
Snow Depth 0.00 in    
Sea Level Pressure  
Sea Level Pressure 29.44 in    
Wind  
Wind Speed 12 mph (WSW)    
Max Wind Speed 21 mph    
Max Gust Speed 32 mph    
Visibility 6 miles    
Events Fog , Snow    
T = Trace of Precipitation, MM = Missing Value Source: NWS Daily Summary

Daily Weather History Graph

Daily Weather History Graph

Search for Another Location

Airport or City:

Trip Planner

Search our weather history database for the weather conditions in past years. The results will help you decide how hot, cold, wet, or windy it might be!

Date:

Astronomy

Jan. 25, 2014 Rise Set
Actual Time 7:23 AM EST 5:09 PM EST
Civil Twilight 6:53 AM EST 5:39 PM EST
Nautical Twilight 6:19 AM EST 6:13 PM EST
Astronomical Twilight 5:46 AM EST 6:46 PM EST
Moon 1:52 AM EST (1/25) 12:08 PM EST (1/25)
Length of Visible Light 10h 46m
Length of Day
9h 45m
Waning Crescent, 34% of the Moon is Illuminated
Jan 25
Waning Crescent
Jan 30
New
Feb 6
First Quarter
Feb 14
Full
Feb 22
Last Quarter

Hourly Weather History & Observations

Time (EST) Temp. Windchill Dew Point Humidity Pressure Visibility Wind Dir Wind Speed Gust Speed Precip Events Conditions
12:53 AM 12.9 °F -3.4 °F -4.0 °F 47% 29.79 in 10.0 mi SSW 16.1 mph 23.0 mph N/A   Overcast
1:53 AM 14.0 °F -3.0 °F -4.0 °F 45% 29.75 in 10.0 mi SSW 18.4 mph 26.5 mph N/A   Overcast
2:53 AM 14.0 °F 0.5 °F -4.0 °F 45% 29.72 in 10.0 mi SSW 11.5 mph 21.9 mph N/A   Mostly Cloudy
3:53 AM 14.0 °F -0.2 °F -4.0 °F 45% 29.68 in 10.0 mi SSW 12.7 mph 21.9 mph N/A   Overcast
4:53 AM 14.0 °F -2.0 °F -4.0 °F 45% 29.65 in 10.0 mi South 16.1 mph 21.9 mph N/A   Overcast
5:53 AM 14.0 °F 0.5 °F -2.9 °F 47% 29.62 in 10.0 mi South 11.5 mph 19.6 mph N/A   Overcast
6:53 AM 14.0 °F 2.9 °F -2.9 °F 47% 29.60 in 10.0 mi South 8.1 mph - N/A   Overcast
7:53 AM 14.0 °F -0.8 °F -2.0 °F 49% 29.57 in 10.0 mi South 13.8 mph - N/A   Mostly Cloudy
8:53 AM 15.1 °F 1.1 °F -0.9 °F 49% 29.55 in 10.0 mi South 12.7 mph 19.6 mph N/A   Overcast
9:53 AM 16.0 °F 6.3 °F -0.0 °F 49% 29.52 in 10.0 mi South 6.9 mph 17.3 mph N/A   Mostly Cloudy
10:53 AM 18.0 °F 4.8 °F 1.9 °F 50% 29.49 in 10.0 mi South 12.7 mph 24.2 mph N/A   Overcast
11:53 AM 19.9 °F 7.3 °F 6.1 °F 55% 29.42 in 10.0 mi SSW 12.7 mph 26.5 mph N/A   Overcast
12:53 PM 21.0 °F 10.6 °F 7.0 °F 55% 29.39 in 10.0 mi SW 9.2 mph - N/A   Overcast
1:53 PM 21.0 °F 8.6 °F 7.0 °F 55% 29.34 in 10.0 mi SSW 12.7 mph 17.3 mph N/A   Overcast
2:53 PM 21.0 °F 11.4 °F 8.1 °F 57% 29.32 in 10.0 mi SW 8.1 mph 17.3 mph N/A   Overcast
3:53 PM 21.9 °F 10.4 °F 9.0 °F 58% 29.31 in 10.0 mi SSW 11.5 mph - N/A   Overcast
4:53 PM 21.0 °F 8.1 °F 9.0 °F 60% 29.31 in 10.0 mi SW 13.8 mph 20.7 mph N/A   Overcast
5:53 PM 19.9 °F 8.6 °F 10.9 °F 68% 29.33 in 9.0 mi SW 10.4 mph - N/A   Overcast
6:30 PM 19.4 °F 8.6 °F 12.2 °F 74% 29.26 in 2.5 mi SW 9.2 mph - 0.00 in Snow Light Snow
6:41 PM 19.4 °F 8.6 °F 14.0 °F 80% 29.26 in 1.8 mi SW 9.2 mph - 0.00 in Snow Light Snow
6:53 PM 19.0 °F 6.1 °F 15.1 °F 85% 29.34 in 1.8 mi SSW 12.7 mph - 0.00 in Snow Light Snow
7:45 PM 19.4 °F 8.6 °F 15.8 °F 86% 29.28 in 2.0 mi SW 9.2 mph - 0.01 in Snow Light Snow
7:53 PM 19.0 °F 7.5 °F 16.0 °F 88% 29.35 in 2.5 mi SW 10.4 mph - 0.01 in Snow Light Snow
8:17 PM 19.4 °F 8.6 °F 15.8 °F 86% 29.28 in 4.0 mi SW 9.2 mph - 0.00 in Snow Light Snow
8:53 PM 19.0 °F 8.2 °F 15.1 °F 85% 29.36 in 8.0 mi SW 9.2 mph - 0.00 in   Overcast
9:12 PM 17.6 °F 4.3 °F 15.8 °F 93% 29.31 in 0.2 mi NW 12.7 mph 29.9 mph 0.00 in Fog , Snow Snow
9:29 PM 17.6 °F 5.7 °F 15.8 °F 93% 29.32 in 0.2 mi NW 10.4 mph 20.7 mph 0.02 in Fog , Snow Snow
9:34 PM 17.6 °F 5.7 °F 15.8 °F 93% 29.33 in 0.8 mi WNW 10.4 mph - 0.02 in Snow Light Snow
9:49 PM 17.6 °F 6.4 °F 15.8 °F 93% 29.34 in 0.8 mi NW 9.2 mph 20.7 mph 0.02 in Snow Light Snow
9:53 PM 17.1 °F 5.0 °F 15.1 °F 92% 29.42 in 0.8 mi NW 10.4 mph 20.7 mph 0.02 in Snow Light Snow
10:03 PM 15.8 °F -0.6 °F 12.2 °F 86% 29.35 in 0.2 mi NNW 18.4 mph 31.1 mph 0.01 in Fog , Snow Snow
10:11 PM 15.8 °F 0.3 °F 12.2 °F 86% 29.35 in 0.5 mi NW 16.1 mph 32.2 mph 0.01 in Fog , Snow Snow
10:18 PM 15.8 °F -1.5 °F 10.4 °F 79% 29.36 in 0.8 mi NW 20.7 mph 27.6 mph 0.01 in Snow Light Snow
10:46 PM 12.2 °F -3.7 °F 8.6 °F 85% 29.39 in 1.0 mi NNW 15.0 mph 21.9 mph 0.02 in Snow Light Snow
10:53 PM 12.9 °F -2.2 °F 9.0 °F 84% 29.47 in 1.0 mi NW 13.8 mph - 0.02 in Snow Light Snow
11:00 PM 12.2 °F -3.1 °F 8.6 °F 85% 29.40 in 1.0 mi NNW 13.8 mph - 0.00 in Snow Light Snow
11:20 PM 10.4 °F -4.1 °F 6.8 °F 85% 29.41 in 1.2 mi NNW 11.5 mph - 0.00 in Snow Light Snow
11:32 PM 10.4 °F -2.4 °F 8.6 °F 92% 29.43 in 1.0 mi NNW 9.2 mph - 0.00 in Snow Light Snow
11:45 PM 10.4 °F -6.6 °F 5.0 °F 79% 29.43 in 1.2 mi NW 16.1 mph 24.2 mph 0.01 in Snow Light Snow
11:53 PM 10.0 °F -7.1 °F 3.9 °F 76% 29.52 in 1.2 mi NNW 16.1 mph 23.0 mph 0.01 in Snow Light Snow